Meteo Giornale » Osservazioni meteo Olanda » Awg-1 Sea
ore: 11:55 - Osservazioni Meteo Awg-1 Sea
Lat. 53° 30' N Lon. 5° 57' E Alt. 50 metri s.l.m.
18 °C
Molto Nuvoloso
Temp. 24 Ore
16 °C
19 °C
Ovest
35.2 Km/h
Dew point 12 °C
Umidità 67 %
Visibilità 10 Km
Il sole sorge alle ore 06:45
Il sole tramonta alle ore 20:26
| Data e Ora | Cielo e Fenomeni | T °C | DP °C | Um. % | Pres. hPa | Vis. km | Vento km/h | |
|---|---|---|---|---|---|---|---|---|
| Oggi h: 11:55 | Molto Nuvoloso | 18 | 12 | 67 | 1017 | 10 | O 35.2 | |
| Oggi h: 11:25 | Molto Nuvoloso | 18 | 12 | 67 | 1017 | 10 | O 35.2 | |
| Oggi h: 10:55 | Molto Nuvoloso | 18 | 12 | 67 | 1016 | 10 | O 35.2 | |
| Oggi h: 10:25 | Molto Nuvoloso | 18 | 13 | 72 | 1016 | 10 | O 38.8 | |
| Oggi h: 09:55 | Molto Nuvoloso | 18 | 14 | 77 | 1016 | 10 | O 31.5 | |
| Oggi h: 09:25 | Molto Nuvoloso | 18 | 13 | 72 | 1015 | 10 | O 33.3 | |
| Oggi h: 08:55 | Nuvoloso | 18 | 14 | 77 | 1015 | 10 | O 33.3 | |
| Oggi h: 08:25 | Nuvoloso | 18 | 15 | 82 | 1015 | 10 | O/SO 25.9 | |
| Oggi h: 07:55 | Molto Nuvoloso | 18 | 15 | 82 | 1015 | 10 | O 25.9 | |
| Oggi h: 07:25 | Pioggia | 17 | 14 | 82 | 1015 | 9 | O/SO 22.2 | |
| Oggi h: 06:55 | Nuvoloso | 19 | 14 | 72 | 1014 | 10 | O 24 | |
| Oggi h: 06:25 | Nuvoloso | 19 | 14 | 72 | 1014 | 10 | O 25.9 | |
| Oggi h: 05:55 | Poco Nuvoloso | 19 | 14 | 72 | 1014 | 10 | O 29.6 | |
| Oggi h: 05:25 | Poco Nuvoloso | 19 | 15 | 77 | 1014 | 10 | O 25.9 | |
| Oggi h: 04:55 | Nuvoloso | 19 | 15 | 77 | 1014 | 10 | O/NO 25.9 | |
| Oggi h: 04:25 | Pioggia | 18 | 15 | 82 | 1014 | 2 | O 24 | |
| Oggi h: 03:55 | Nuvoloso | 19 | 14 | 72 | 1014 | 10 | O/NO 27.8 | |
| Oggi h: 03:25 | Poco Nuvoloso | 19 | 14 | 72 | 1014 | 10 | O 29.6 | |
| Oggi h: 02:55 | Poco Nuvoloso | 19 | 14 | 72 | 1014 | 10 | O/NO 29.6 | |
| Oggi h: 02:25 | Nuvoloso | 19 | 14 | 72 | 1013 | 10 | O/NO 33.3 | |
| Oggi h: 01:55 | Nuvoloso | 18 | 14 | 77 | 1013 | 10 | O/NO 35.2 | |
| Oggi h: 01:25 | Nuvoloso | 18 | 14 | 77 | 1013 | 10 | O/NO 35.2 | |
| Oggi h: 00:55 | Nuvoloso | 18 | 14 | 77 | 1013 | 10 | O/NO 37 | |
| Oggi h: 00:25 | Nuvoloso | 18 | 14 | 77 | 1013 | 10 | O/NO 38.8 | |
| Ieri h: 23:55 | Nuvoloso | 18 | 14 | 77 | 1013 | 10 | O/NO 37 | |
| Ieri h: 23:25 | Nuvoloso | 19 | 14 | 72 | 1012 | 10 | O/NO 40.7 | |
| Ieri h: 22:55 | Pioggia | 18 | 14 | 77 | 1012 | 8 | O/NO 40.7 | |
| Ieri h: 22:25 | Nuvoloso | 18 | 14 | 77 | 1012 | 10 | O/NO 40.7 | |
| Ieri h: 21:55 | Nuvoloso | 19 | 15 | 77 | 1011 | 10 | O/NO 38.8 | |
| Ieri h: 21:25 | Nuvoloso | 19 | 14 | 72 | 1011 | 10 | O/NO 38.8 | |
| Ieri h: 20:55 | Nuvoloso | 19 | 14 | 72 | 1010 | 10 | O/NO 38.8 | |
| Ieri h: 20:25 | Molto Nuvoloso | 19 | 14 | 72 | 1010 | 10 | O/NO 40.7 | |
| Ieri h: 19:55 | Molto Nuvoloso | 18 | 14 | 77 | 1009 | 10 | O/NO 40.7 | |
| Ieri h: 19:25 | Molto Nuvoloso | 19 | 15 | 77 | 1009 | 10 | O/NO 44.4 | |
| Ieri h: 18:55 | Nuvoloso | 18 | 14 | 77 | 1009 | 10 | O/NO 38.8 | |
| Ieri h: 18:25 | Nuvoloso | 18 | 14 | 77 | 1008 | 10 | O 35.2 | |
| Ieri h: 17:55 | Nuvoloso | 18 | 14 | 77 | 1008 | 10 | O 31.5 | |
| Ieri h: 17:25 | Molto Nuvoloso | 18 | 14 | 77 | 1008 | 10 | O 37 | |
| Ieri h: 16:55 | Molto Nuvoloso | 18 | 14 | 77 | 1007 | 10 | O 33.3 | |
| Ieri h: 16:25 | Nuvoloso | 17 | 14 | 82 | 1007 | 10 | O/SO 35.2 | |
| Ieri h: 15:55 | Nuvoloso | 18 | 13 | 72 | 1007 | 10 | O 33.3 | |
| Ieri h: 15:25 | Molto Nuvoloso | 18 | 13 | 72 | 1006 | 10 | O/SO 29.6 | |
| Ieri h: 14:55 | Nuvoloso | 17 | 14 | 82 | 1006 | 10 | SO 31.5 | |
| Ieri h: 14:25 | Pioggia | 17 | 14 | 82 | 1006 | 10 | SO 24 | |
| Ieri h: 13:55 | Poco Nuvoloso | 17 | 13 | 77 | 1006 | 10 | N 31.5 | |
| Ieri h: 13:25 | Poco Nuvoloso | 17 | 13 | 77 | 1006 | 10 | SO 29.6 | |
| Ieri h: 12:55 | Nuvoloso | 16 | 14 | 87 | 1006 | 10 | SO 29.6 | |



